Weather History for Capo Mele, Italy

Change the Weather History Date:

Sunday, March 10, 2013

  Actual Average Record
Temperature  
Mean Temperature 52 °F -  
Max Temperature 57 °F 58 °F 68 °F (1997)
Min Temperature 46 °F 47 °F 41 °F (1998)
Degree Days  
Heating Degree Days 14    
Growing Degree Days 2 (Base 50)    
Moisture  
Dew Point 46 °F    
Average Humidity 84    
Maximum Humidity 88    
Minimum Humidity 75    
Precipitation  
Precipitation 0.00 in 0.09 in - ()
Sea Level Pressure  
Sea Level Pressure 29.53 in    
Wind  
Wind Speed 8 mph ()    
Max Wind Speed 14 mph    
Max Gust Speed -    
Visibility 7.7 miles    
Events      
Averages and records for this station are not official NWS values.
T = Trace of Precipitation, MM = Missing Value Source: Averaged Metar Reports

Daily Weather History Graph

Daily Weather History Graph

Search for Another Location

Airport:

Trip Planner

Search our weather history database for the weather conditions in past years. The results will help you decide how hot, cold, wet, or windy it might be!

Date:

Astronomy

Mar. 10, 2013 Rise Set
Actual Time 6:48 AM CET 6:27 PM CET
Civil Twilight 6:19 AM CET 6:56 PM CET
Nautical Twilight 5:46 AM CET 7:29 PM CET
Astronomical Twilight 5:12 AM CET 8:03 PM CET
Moon 5:41 AM CET (3/10) 5:16 PM CET (3/10)
Length of Visible Light 12h 36m
Length of Day
11h 38m
Waning Crescent, 2% of the Moon is Illuminated
Mar 10
Waning Crescent
Mar 11
New
Mar 19
First Quarter
Mar 27
Full
Apr 3
Last Quarter

Hourly Weather History & Observations

Time (CET) Temp. Windchill Dew Point Humidity Pressure Visibility Wind Dir Wind Speed Gust Speed Precip Events Conditions
12:55 AM 48.2 °F - 44.6 °F 87% 29.59 in - West 9.2 mph - N/A   Clear
1:00 AM 49 °F - 44 °F 78% 29.62 in 12 mi West 9.2 mph - -  
1:55 AM 48.2 °F - 44.6 °F 87% 29.59 in - South 3.5 mph - N/A   Clear
2:55 AM 46.4 °F 41.9 °F 42.8 °F 87% 29.59 in - NNE 9.2 mph - N/A   Clear
3:55 AM 46.4 °F 41.1 °F 42.8 °F 87% 29.56 in 6.2 mi North 11.5 mph - N/A   Scattered Clouds
4:55 AM 48.2 °F - 42.8 °F 82% 29.56 in 6.2 mi North 9.2 mph - N/A   Scattered Clouds
5:55 AM 48.2 °F - 42.8 °F 82% 29.56 in 6.2 mi North 9.2 mph - N/A   Mostly Cloudy
6:55 AM 48.2 °F - 42.8 °F 82% 29.53 in 6.2 mi North 6.9 mph - N/A   Scattered Clouds
7:00 AM 48 °F - 43 °F 75% 29.57 in 12 mi North 6.9 mph - -   Partly Cloudy
7:55 AM 48.2 °F - 42.8 °F 82% 29.56 in 6.2 mi NE 3.5 mph - N/A   Mostly Cloudy
8:55 AM 51.8 °F - 46.4 °F 82% 29.56 in 6.2 mi East 2.3 mph - N/A   Scattered Clouds
9:55 AM 53.6 °F - 48.2 °F 82% 29.56 in - ESE 3.5 mph - N/A   Clear
10:55 AM 53.6 °F - 48.2 °F 82% 29.53 in - SW 11.5 mph - N/A   Clear
11:55 AM 53.6 °F - 50.0 °F 88% 29.53 in 6.2 mi South 11.5 mph - N/A   Scattered Clouds
12:55 PM 55.4 °F - 51.8 °F 88% 29.53 in - SSW 13.8 mph - N/A   Clear
1:00 PM 56 °F - 52 °F 81% 29.54 in 12 mi SSW 13.8 mph - -   Clear
1:55 PM 53.6 °F - 50.0 °F 88% 29.50 in - South 5.8 mph - N/A   Clear
2:55 PM 55.4 °F - 51.8 °F 88% 29.50 in - SSW 12.7 mph - N/A   Clear
3:55 PM 53.6 °F - 50.0 °F 88% 29.50 in - SW 9.2 mph - N/A   Clear
4:55 PM 53.6 °F - 50.0 °F 88% 29.47 in - SSW 10.4 mph - N/A   Clear
5:55 PM 51.8 °F - 48.2 °F 88% 29.47 in - WSW 11.5 mph - N/A   Clear
6:55 PM 50.0 °F - 46.4 °F 87% 29.47 in - WSW 11.5 mph - N/A   Clear
7:00 PM 50 °F - 46 °F 83% 29.51 in 12 mi WSW 11.5 mph - -   Clear
7:55 PM 50.0 °F - 44.6 °F 82% 29.50 in - WSW 10.4 mph - N/A   Clear
8:55 PM 50.0 °F - 44.6 °F 82% 29.50 in 6.2 mi NNE 6.9 mph - N/A   Partly Cloudy
9:55 PM 50.0 °F - 44.6 °F 82% 29.50 in 6.2 mi NNE 5.8 mph - N/A   Partly Cloudy
10:55 PM 50.0 °F - 44.6 °F 82% 29.53 in 6.2 mi NNE 9.2 mph - N/A   Partly Cloudy
11:55 PM 50.0 °F - 44.6 °F 82% 29.53 in 6.2 mi NNE 8.1 mph - N/A   Partly Cloudy